Overview Statistics Trail Chart Weather Telemetry Raw packets
 

This is the latest recevied weather packets stored in our database for station/object YH8VA-1. If no packets are shown the sender has not sent any weather packets the latest 10 day(s).

<< 34 35 36 37 38 39 40 >>
Time Temp. Humidity Pressure Rain* Wind** Luminosity Snow
1777535181 33.89° C 58% 998 hPa - - 0 W/m² -
1777534858 34.44° C 56% 998 hPa - - 0 W/m² -
1777534541 34.44° C 56% 998 hPa - - 0 W/m² -
1777534214 34.44° C 57% 998 hPa - - 0 W/m² -
1777533891 34.44° C 56% 998 hPa - - 0 W/m² -
1777533569 34.44° C 56% 998 hPa - - 0 W/m² -
1777533247 35° C 56% 998 hPa - - 0 W/m² -
1777532925 34.44° C 56% 998 hPa - - 0 W/m² -
1777532602 34.44° C 57% 998 hPa - - 0 W/m² -
1777532279 33.89° C 58% 998 hPa - - 0 W/m² -
1777531956 33.33° C 59% 998 hPa - - 0 W/m² -
1777531633 33.89° C 58% 998 hPa - - 0 W/m² -
1777531313 34.44° C 57% 998 hPa - - 0 W/m² -
1777530989 35° C 57% 998 hPa - - 0 W/m² -
1777530668 35° C 57% 998 hPa - - 0 W/m² -
1777530345 34.44° C 57% 998 hPa - - 0 W/m² -
1777530022 33.33° C 60% 998 hPa - - 0 W/m² -
1777529701 33.89° C 59% 998 hPa - - 0 W/m² -
1777529378 33.89° C 60% 998 hPa - - 0 W/m² -
1777529056 35° C 57% 998 hPa - - 0 W/m² -
1777528734 35° C 57% 998 hPa - - 0 W/m² -
1777528412 35° C 57% 998 hPa - - 0 W/m² -
1777528090 34.44° C 57% 998 hPa - - 0 W/m² -
1777527768 34.44° C 57% 998 hPa - - 0 W/m² -
1777527446 34.44° C 57% 998 hPa - - 0 W/m² -

* Rain since midnight (hover to see other rain measurements)
** Current wind speed in m/s (hover to see current wind gust speed)